Regional Weather Roundup
Issued by NWS

Home | Current Version | Previous Version | Graphics & Text | Print | Product List | Glossary On
Versions: 1 2 3 4 5 6 7 8 9 10 11 12 13 14 15 16 17 18 19 20 21 22 23 24 25 26 27 28 29 30 31 32 33 34 35 36 37 38 39 40 41 42 43 44 45 46 47 48 49 50
000
ASUS44 KMEG 222000
RWRTN
TENNESSEE HOURLY STATE WEATHER ROUNDUP
NATIONAL WEATHER SERVICE MEMPHIS TN
200 PM CST SUN JAN 22 2017

TNZ002-004-019-021-049-052-054-088>092-222100-
WEST TENNESSEE

CITY           SKY/WX    TMP DP  RH WIND       PRES   REMARKS
MEMPHIS INTL   LGT RAIN  55  53  93 W8        29.31F
NWS MEMPHIS      N/A     56 N/A N/A MISG        N/A
JACKSON        CLOUDY    59  55  87 NW7       29.27F
DYERSBURG      CLOUDY    55  54  94 CALM      29.31F
UNION CITY     CLOUDY    61  54  77 NE8       29.31F
PARIS          CLOUDY    57  52  82 CALM      29.31F
$$

TNZ008-025-027-028-033-062-065-066-222100-
NORTH MIDDLE TENNESSEE

CITY           SKY/WX    TMP DP  RH WIND       PRES   REMARKS
NASHVILLE      CLOUDY    66  52  60 N15G23    29.25F
CLARKSVILLE    PTSUNNY   64  51  62 NE12      29.31F
SMYRNA         PTSUNNY   65  52  62 N7        29.30F
CROSSVILLE     PTSUNNY   60  50  69 SE6       29.34F
$$

TNZ061-075-076-078-094-096-097-222100-
SOUTH MIDDLE TENNESSEE

CITY           SKY/WX    TMP DP  RH WIND       PRES   REMARKS
TULLAHOMA      PTSUNNY   61  54  77 E3        29.32R
WINCHESTER     PTSUNNY   63  54  72 SE7       29.30R
COLUMBIA       CLOUDY    61  61 100 CALM      29.28R
SHELBYVILLE    CLOUDY    64  55  72 SE6       29.32R
$$

TNZ017-018-042-046-047-222100-
NORTHEAST TENNESSEE

CITY           SKY/WX    TMP DP  RH WIND       PRES   REMARKS
TRI CITIES     CLOUDY    66  49  54 S3        29.41R
$$

TNZ012-013-036-069-073-074-222100-
CENTRAL EAST TENNESSEE

CITY           SKY/WX    TMP DP  RH WIND       PRES   REMARKS
KNOXVILLE      CLOUDY    66  51  58 W3        29.34F
OAK RIDGE      CLOUDY    64  52  64 CALM      29.36F
GATLINBURG     CLOUDY    63  52  67 E5        29.36F
$$

TNZ083-085-099-222100-
SOUTHEAST TENNESSEE

CITY           SKY/WX    TMP DP  RH WIND       PRES   REMARKS
CHATTANOOGA    CLOUDY    63  54  72 SE6       29.33S
$$

SKY/WX REPORTED AS FAIR MEANS FEW OR NO CLOUDS BELOW
12 THOUSAND FEET.





USA.gov is the U.S. government's official web portal to all federal, state and local government web resources and services.